Regional Weather Roundup
Issued by NWS

Home | Current Version | Previous Version | Text Only | Print | Product List | Glossary Off
Versions: 1 2 3 4 5 6 7 8 9 10 11 12 13 14 15 16 17 18 19 20 21 22 23 24 25 26 27 28 29 30 31 32 33 34 35 36 37 38 39 40 41 42 43 44 45 46 47 48 49 50

000
ASUS43 KIND 241859
RWRIN

WEATHER ROUNDUP FOR INDIANA
NATIONAL WEATHER SERVICE INDIANAPOLIS IN
200 PM EST WED DEC 24 2014

NOTE: "FAIR" INDICATES FEW OR NO CLOUDS BELOW 12,000 FEET WITH NO
SIGNIFICANT WEATHER AND/OR OBSTRUCTIONS TO VISIBILITY.

* - STATION DOES NOT REPORT WEATHER SUCH AS PRECIPITATION OR FOG.

+ - STATION NOT QUALITY CONTROLLED BY THE NATIONAL WEATHER SERVICE.
    USE DATA WITH CAUTION...ESPECIALLY DEWPOINT AND RELATIVE
    HUMIDITY OBSERVATIONS.

INZ001>003-010>013-019-020-242000-
NORTHWEST INDIANA

CITY           SKY/WX    TMP DP  RH WIND       PRES   REMARKS
GARY /AIRPORT/ CLOUDY    41  36  81 W9        29.49F FOG
VALPARAISO     NOT AVBL

$$

LMZ046-743>745-242000-
SOUTHERN LAKE MICHIGAN

STATION/POSITION TIME  TEMP WIND        PRES
                       AIR  DIR/SP/G
                 (UTC) (F)  (DEG/KT/KT) (MB)
MICHIGAN CITY    1800   38  260/  6/  9   N/A

$$

INZ004-005-014>016-021>024-242000-
NORTH CENTRAL INDIANA

CITY           SKY/WX    TMP DP  RH WIND       PRES   REMARKS
ELKHART        DRIZZLE   39  36  87 NW7       29.42F
GOSHEN         CLOUDY    40  37  89 N13       29.41F
SOUTH BEND     LGT RAIN  40  38  93 NW9       29.45F

$$

INZ006>009-017-018-025>027-242000-
NORTHEAST INDIANA

CITY           SKY/WX    TMP DP  RH WIND       PRES   REMARKS
ANGOLA *+      CLOUDY    39  37  93 N7        29.35F
FORT WAYNE     CLOUDY    42  39  89 N9        29.37F

$$

INZ028-029-035-036-043>045-051>053-242000-
WEST CENTRAL INDIANA

CITY           SKY/WX    TMP DP  RH WIND       PRES   REMARKS
GREENCASTLE +  LGT RAIN  37  34  87 W7        29.52F
LAFAYETTE      LGT RAIN  38  36  92 NW8       29.51S
TERRE HAUTE    LGT RAIN  40  37  89 W12       29.54F

$$

INZ030>032-037>040-046>048-054>057-064-065-242000-
CENTRAL INDIANA

CITY           SKY/WX    TMP DP  RH WIND       PRES   REMARKS
COLUMBUS       RAIN      41  41 100 NW12      29.46S FOG
INDIANAPOLIS   LGT RAIN  38  36  92 NW16      29.48S
-EAGLE CREEK   LGT RAIN  38  36  92 NW15G25   29.49R
KOKOMO *+      CLOUDY    39  37  93 NW13      29.44S
MT COMFORT *+  CLOUDY    41 N/A N/A W14       29.45R
SHELBYVILLE    HVY RAIN  43  40  89 W12       29.45R FOG

$$

INZ033-034-041-042-049-050-058-059-242000-
EAST CENTRAL INDIANA

CITY           SKY/WX    TMP DP  RH WIND       PRES   REMARKS
MUNCIE         LGT RAIN  42  40  92 NW9       29.40F FOG

$$

INZ060-061-067>069-081>083-085>088-242000-
SOUTHWEST INDIANA

CITY           SKY/WX    TMP DP  RH WIND       PRES   REMARKS
EVANSVILLE     CLOUDY    43  39  86 W13       29.62F
HUNTINGBURG *+ CLOUDY    43  39  87 NW15G22   29.58F

$$

INZ062-063-066-070>080-084-089>092-242000-
SOUTH CENTRAL AND SOUTHEAST INDIANA

CITY           SKY/WX    TMP DP  RH WIND       PRES   REMARKS
BLOOMINGTON    LGT RAIN  40  37  89 W10       29.53R

$$



USA.gov is the U.S. government's official web portal to all federal, state and local government web resources and services.